����,���ϕ���(m/s),���ϕ���,�ő�u�ԕ���(m/s),�ő啗��������,�C��(��),���x(%),10���Ԉړ��ώZ�J��(mm),1���Ԉړ��ώZ�J��(mm),���J��(mm),�݌v�J��(mm),����(���ώZ)(MJ/m2),����(���ώZ)(min),���n�C��(hPa),�C�ʋC��(hPa)
2023-09-04T00:00:00+09:00,1.6,�k��,3,�k,25.9,83.6,0,0,0,0,23.85,679,999.9,1013.2
2023-09-04T00:01:00+09:00,1.6,�k��,3.2,�k,25.9,83.5,0,0,0,0,0,0,999.9,1013.2
2023-09-04T00:02:00+09:00,1.5,�k��,3.2,�k,26,83.6,0,0,0,0,0,0,999.9,1013.2
2023-09-04T00:03:00+09:00,1.5,�k��,3.2,�k,25.6,82.9,0,0,0,0,0,0,999.9,1013.2
2023-09-04T00:04:00+09:00,1.5,�k��,3.2,�k,25.5,83.6,0,0,0,0,0,0,999.9,1013.2
2023-09-04T00:05:00+09:00,1.5,�k��,3.2,�k,25.7,84.2,0,0,0,0,0,0,999.9,1013.2
2023-09-04T00:06:00+09:00,1.6,�k��,3.2,�k,25.7,84.3,0,0,0,0,0,0,999.9,1013.2
2023-09-04T00:07:00+09:00,1.6,���k��,3.2,�k,26.1,84.9,0,0,0,0,0,0,999.9,1013.2
2023-09-04T00:08:00+09:00,1.6,���k��,3.2,�k,25.9,84,0,0,0,0,0,0,999.9,1013.2
2023-09-04T00:09:00+09:00,1.5,���k��,3.2,�k,25.8,83.6,0,0,0,0,0,0,999.9,1013.2
2023-09-04T00:10:00+09:00,1.5,���k��,3.2,�k,25.8,83.6,0,0,0,0,0,0,999.9,1013.2
2023-09-04T00:11:00+09:00,1.4,���k��,2.7,���k��,25.8,83.7,0,0,0,0,0,0,999.9,1013.2
2023-09-04T00:12:00+09:00,1.3,���k��,2.7,���k��,25.8,83.8,0,0,0,0,0,0,999.9,1013.2
2023-09-04T00:13:00+09:00,1.2,���k��,2.7,���k��,26.1,84.3,0,0,0,0,0,0,999.9,1013.2
2023-09-04T00:14:00+09:00,1.2,���k��,2.7,���k��,26,83.7,0,0,0,0,0,0,999.9,1013.2
2023-09-04T00:15:00+09:00,1.2,�k��,2.7,���k��,26.1,83.5,0,0,0,0,0,0,999.9,1013.2
2023-09-04T00:16:00+09:00,1,�k��,2.3,���k��,26.1,83.3,0,0,0,0,0,0,999.9,1013.2
2023-09-04T00:17:00+09:00,0.9,�k��,1.8,�k�k��,26,82.7,0,0,0,0,0,0,999.9,1013.2
2023-09-04T00:18:00+09:00,0.8,�k��,1.8,�k�k��,25.7,82.3,0,0,0,0,0,0,1000,1013.3
2023-09-04T00:19:00+09:00,0.8,�k��,1.8,�k�k��,25.9,83.1,0,0,0,0,0,0,1000,1013.3
2023-09-04T00:20:00+09:00,0.8,�k��,1.8,�k�k��,25.9,83.5,0,0,0,0,0,0,1000,1013.3
2023-09-04T00:21:00+09:00,0.8,�k�k��,1.8,�k�k��,26.1,83.6,0,0,0,0,0,0,999.9,1013.2
2023-09-04T00:22:00+09:00,0.7,�k�k��,1.8,�k�k��,26,83.2,0,0,0,0,0,0,999.9,1013.2
2023-09-04T00:23:00+09:00,0.7,�k�k��,1.8,�k�k��,26,83.1,0,0,0,0,0,0,999.9,1013.2
2023-09-04T00:24:00+09:00,0.6,�k,1.7,�k��,26.1,83.1,0,0,0,0,0,0,999.9,1013.2
2023-09-04T00:25:00+09:00,0.7,�k,3.8,�k�k��,25.9,82.9,0,0,0,0,0,0,999.9,1013.2
2023-09-04T00:26:00+09:00,0.8,�k,3.8,�k�k��,25.9,83.1,0,0,0,0,0,0,999.9,1013.2
2023-09-04T00:27:00+09:00,0.9,�k,3.8,�k�k��,26.1,83.5,0,0,0,0,0,0,999.9,1013.2
2023-09-04T00:28:00+09:00,1,�k,3.8,�k�k��,26.2,83.8,0,0,0,0,0,0,1000,1013.3
2023-09-04T00:29:00+09:00,1,�k,3.8,�k�k��,26.5,83.6,0,0,0,0,0,0,1000,1013.3
2023-09-04T00:30:00+09:00,1.1,�k,3.8,�k�k��,26.4,82.8,0,0,0,0,0,0,999.9,1013.2
2023-09-04T00:31:00+09:00,1.2,�k,3.8,�k�k��,26.3,82.3,0,0,0,0,0,0,999.9,1013.2
2023-09-04T00:32:00+09:00,1.2,�k,3.8,�k�k��,26.3,82,0,0,0,0,0,0,999.9,1013.2
2023-09-04T00:33:00+09:00,1.1,�k,3.8,�k�k��,26.2,81.9,0,0,0,0,0,0,999.8,1013.1
2023-09-04T00:34:00+09:00,1.1,�k,3.8,�k�k��,26.2,82,0,0,0,0,0,0,999.8,1013.1
2023-09-04T00:35:00+09:00,1.1,�k,2.9,�k�k��,26.2,82.4,0,0,0,0,0,0,999.8,1013.1
2023-09-04T00:36:00+09:00,1,�k,2.7,�k,26.1,82.5,0,0,0,0,0,0,999.8,1013.1
2023-09-04T00:37:00+09:00,1,�k,2.4,�k,26.4,82.8,0,0,0,0,0,0,999.8,1013.1
2023-09-04T00:38:00+09:00,1,�k,2.4,�k,26.3,82.5,0,0,0,0,0,0,999.7,1013
2023-09-04T00:39:00+09:00,1.1,�k�k��,2.6,�k��,26.4,82.5,0,0,0,0,0,0,999.7,1013
2023-09-04T00:40:00+09:00,1.1,�k�k��,2.6,�k��,26.4,82.3,0,0,0,0,0,0,999.7,1013
2023-09-04T00:41:00+09:00,1.2,�k�k��,3.3,�k��,26.5,82.3,0,0,0,0,0,0,999.7,1013
2023-09-04T00:42:00+09:00,1.3,�k�k��,3.3,�k��,26.5,81.9,0,0,0,0,0,0,999.7,1013
2023-09-04T00:43:00+09:00,1.3,�k�k��,3.3,�k��,26.4,81.6,0,0,0,0,0,0,999.7,1013
2023-09-04T00:44:00+09:00,1.4,�k�k��,3.3,�k��,26.3,81.4,0,0,0,0,0,0,999.7,1013
2023-09-04T00:45:00+09:00,1.5,�k�k��,3.7,�k��,26.4,81.6,0,0,0,0,0,0,999.7,1013
2023-09-04T00:46:00+09:00,1.6,�k�k��,3.7,�k��,26.3,81.6,0,0,0,0,0,0,999.7,1013
2023-09-04T00:47:00+09:00,1.6,�k�k��,3.7,�k��,26.2,81.5,0,0,0,0,0,0,999.7,1013
2023-09-04T00:48:00+09:00,1.6,�k�k��,3.7,�k��,26,81.4,0,0,0,0,0,0,999.7,1013
2023-09-04T00:49:00+09:00,1.6,�k�k��,3.7,�k��,26.1,82.1,0,0,0,0,0,0,999.7,1013
2023-09-04T00:50:00+09:00,1.5,�k�k��,3.7,�k��,25.8,82.3,0,0,0,0,0,0,999.7,1013
2023-09-04T00:51:00+09:00,1.5,�k��,3.7,�k��,25.6,82.4,0,0,0,0,0,0,999.7,1013
2023-09-04T00:52:00+09:00,1.5,�k��,3.7,�k��,25.6,83.7,0,0,0,0,0,0,999.7,1013
2023-09-04T00:53:00+09:00,1.5,�k��,3.7,�k��,25.3,84.1,0,0,0,0,0,0,999.7,1013
2023-09-04T00:54:00+09:00,1.6,�k��,3.7,�k��,25.6,85.5,0,0,0,0,0,0,999.7,1013
2023-09-04T00:55:00+09:00,1.6,�k��,3.7,�k�k��,25.2,85.2,0,0,0,0,0,0,999.6,1012.9
2023-09-04T00:56:00+09:00,1.7,���k��,3.7,�k�k��,24.7,85,0,0,0,0,0,0,999.6,1013
2023-09-04T00:57:00+09:00,1.6,���k��,2.5,���k��,25.1,87,0,0,0,0,0,0,999.6,1012.9
2023-09-04T00:58:00+09:00,1.5,���k��,2.5,���k��,25.4,88.3,0,0,0,0,0,0,999.6,1012.9
2023-09-04T00:59:00+09:00,1.4,���k��,2.5,���k��,25.6,88.2,0,0,0,0,0,0,999.6,1012.9
2023-09-04T01:00:00+09:00,1.3,���k��,2.5,���k��,25.9,87.9,0,0,0,0,0,0,999.6,1012.9
2023-09-04T01:01:00+09:00,1.3,���k��,2.5,���k��,25.8,86.6,0,0,0,0,0,0,999.6,1012.9
2023-09-04T01:02:00+09:00,1.2,���k��,2.5,���k��,25.4,85.4,0,0,0,0,0,0,999.6,1012.9
2023-09-04T01:03:00+09:00,1.1,���k��,2.5,���k��,25.8,85.9,0,0,0,0,0,0,999.6,1012.9
2023-09-04T01:04:00+09:00,1,���k��,2.4,���k��,25.9,85.9,0,0,0,0,0,0,999.6,1012.9
2023-09-04T01:05:00+09:00,0.9,���k��,2.4,���k��,25.7,85,0,0,0,0,0,0,999.6,1012.9
2023-09-04T01:06:00+09:00,0.8,�k��,1.8,��,25.7,84.8,0,0,0,0,0,0,999.6,1012.9
2023-09-04T01:07:00+09:00,0.8,�k��,2.8,�k�k��,25.7,84.9,0,0,0,0,0,0,999.5,1012.8
2023-09-04T01:08:00+09:00,0.9,�k��,3,�k,25.7,84.9,0,0,0,0,0,0,999.5,1012.8
2023-09-04T01:09:00+09:00,1,�k��,3.4,�k,25.7,85.2,0,0,0,0,0,0,999.5,1012.8
2023-09-04T01:10:00+09:00,1.1,�k�k��,3.4,�k,25.6,84.9,0,0,0,0,0,0,999.5,1012.8
2023-09-04T01:11:00+09:00,1.1,�k�k��,3.4,�k,25.9,85.5,0,0,0,0,0,0,999.4,1012.7
2023-09-04T01:12:00+09:00,1.2,�k�k��,3.8,�k��,26.1,85.4,0,0,0,0,0,0,999.4,1012.7
2023-09-04T01:13:00+09:00,1.4,�k�k��,3.8,�k��,26.2,84.8,0,0,0,0,0,0,999.4,1012.7
2023-09-04T01:14:00+09:00,1.5,�k�k��,3.8,�k��,26.3,84.2,0,0,0,0,0,0,999.4,1012.7
2023-09-04T01:15:00+09:00,1.6,�k,3.8,�k��,26.3,83.5,0,0,0,0,0,0,999.4,1012.7
2023-09-04T01:16:00+09:00,1.7,�k�k��,4.1,�k�k��,26.2,83,0,0,0,0,0,0,999.5,1012.8
2023-09-04T01:17:00+09:00,1.9,�k�k��,4.8,�k�k��,26.3,82.9,0,0,0,0,0,0,999.5,1012.8
2023-09-04T01:18:00+09:00,2,�k�k��,4.8,�k�k��,26.5,82.9,0,0,0,0,0,0,999.5,1012.8
2023-09-04T01:19:00+09:00,2.2,�k,4.8,�k�k��,26.5,82.5,0,0,0,0,0,0,999.5,1012.8
2023-09-04T01:20:00+09:00,2.3,�k,4.8,�k�k��,26.5,82.1,0,0,0,0,0,0,999.5,1012.8
2023-09-04T01:21:00+09:00,2.3,�k,4.8,�k�k��,26.3,81.7,0,0,0,0,0,0,999.5,1012.8
2023-09-04T01:22:00+09:00,2.4,�k,4.8,�k�k��,26.4,82,0,0,0,0,0,0,999.5,1012.8
2023-09-04T01:23:00+09:00,2.4,�k�k��,4.8,�k�k��,26.5,82.1,0,0,0,0,0,0,999.5,1012.8
2023-09-04T01:24:00+09:00,2.4,�k�k��,4.8,�k�k��,26.5,81.9,0,0,0,0,0,0,999.5,1012.8
2023-09-04T01:25:00+09:00,2.4,�k�k��,4.8,�k�k��,26.4,81.7,0,0,0,0,0,0,999.5,1012.8
2023-09-04T01:26:00+09:00,2.5,�k�k��,4.8,�k�k��,26.3,81.6,0,0,0,0,0,0,999.5,1012.8
2023-09-04T01:27:00+09:00,2.4,�k��,4.4,�k,26.2,81.7,0,0,0,0,0,0,999.5,1012.8
2023-09-04T01:28:00+09:00,2.4,�k��,4.3,�k�k��,26.2,82.3,0,0,0,0,0,0,999.5,1012.8
2023-09-04T01:29:00+09:00,2.3,�k��,4.2,�k��,26.4,82.5,0,0,0,0,0,0,999.4,1012.7
2023-09-04T01:30:00+09:00,2.2,�k�k��,4.1,�k�k��,26.3,82.3,0,0,0,0,0,0,999.5,1012.8
2023-09-04T01:31:00+09:00,2.3,�k�k��,4.1,�k�k��,26.1,82.1,0,0,0,0,0,0,999.5,1012.8
2023-09-04T01:32:00+09:00,2.3,�k�k��,4,�k�k��,25.9,82,0,0,0,0,0,0,999.5,1012.8
2023-09-04T01:33:00+09:00,2.3,�k�k��,4.1,�k�k��,26.1,82.8,0,0,0,0,0,0,999.5,1012.8
2023-09-04T01:34:00+09:00,2.4,�k�k��,4.1,�k�k��,26.2,83.2,0,0,0,0,0,0,999.5,1012.8
2023-09-04T01:35:00+09:00,2.5,�k�k��,4.1,�k�k��,26.4,83.2,0,0,0,0,0,0,999.5,1012.8
2023-09-04T01:36:00+09:00,2.5,�k�k��,4.1,�k�k��,26.4,82.7,0,0,0,0,0,0,999.5,1012.8
2023-09-04T01:37:00+09:00,2.4,�k�k��,4.1,�k�k��,26.3,82.3,0,0,0,0,0,0,999.5,1012.8
2023-09-04T01:38:00+09:00,2.4,�k�k��,4.1,�k�k��,26.2,82.1,0,0,0,0,0,0,999.6,1012.9
2023-09-04T01:39:00+09:00,2.3,�k�k��,4.1,�k�k��,26.3,82.5,0,0,0,0,0,0,999.6,1012.9
2023-09-04T01:40:00+09:00,2.3,�k�k��,4.1,�k�k��,26.2,82.3,0,0,0,0,0,0,999.6,1012.9
2023-09-04T01:41:00+09:00,2.2,�k�k��,4.1,�k�k��,26,82.3,0,0,0,0,0,0,999.6,1012.9
2023-09-04T01:42:00+09:00,2.2,�k�k��,4.1,�k�k��,26,82.7,0,0,0,0,0,0,999.6,1012.9
2023-09-04T01:43:00+09:00,2.1,�k��,3.9,�k�k��,25.9,83,0,0,0,0,0,0,999.6,1012.9
2023-09-04T01:44:00+09:00,2.1,�k��,3.7,�k�k��,25.9,83.4,0,0,0,0,0,0,999.6,1012.9
2023-09-04T01:45:00+09:00,2,�k��,3.1,�k�k��,25.9,83.5,0,0,0,0,0,0,999.6,1012.9
2023-09-04T01:46:00+09:00,2,�k��,3.1,�k�k��,26.1,83.9,0,0,0,0,0,0,999.6,1012.9
2023-09-04T01:47:00+09:00,2,�k��,3.1,�k�k��,26.3,84,0,0,0,0,0,0,999.6,1012.9
2023-09-04T01:48:00+09:00,2,�k��,3.1,�k�k��,26.3,83.4,0,0,0,0,0,0,999.6,1012.9
2023-09-04T01:49:00+09:00,2,�k��,3.1,�k�k��,26.2,82.8,0,0,0,0,0,0,999.6,1012.9
2023-09-04T01:50:00+09:00,2,�k��,3.1,�k�k��,26.3,82.9,0,0,0,0,0,0,999.7,1013
2023-09-04T01:51:00+09:00,2,�k��,3.1,�k�k��,26.2,82.5,0,0,0,0,0,0,999.7,1013
2023-09-04T01:52:00+09:00,1.9,�k��,3.1,�k�k��,26.1,82.6,0,0,0,0,0,0,999.7,1013
2023-09-04T01:53:00+09:00,1.9,�k��,3.1,�k�k��,26.2,82.8,0,0,0,0,0,0,999.7,1013
2023-09-04T01:54:00+09:00,1.7,�k��,3,�k��,26,82.8,0,0,0,0,0,0,999.7,1013
2023-09-04T01:55:00+09:00,1.6,�k��,2.7,�k�k��,25.9,83,0,0,0,0,0,0,999.7,1013
2023-09-04T01:56:00+09:00,1.6,�k��,2.7,�k�k��,25.9,83.4,0,0,0,0,0,0,999.7,1013
2023-09-04T01:57:00+09:00,1.5,�k��,2.5,�k��,25.7,83.6,0,0,0,0,0,0,999.7,1013
2023-09-04T01:58:00+09:00,1.4,�k��,2.2,�k��,25.9,84.2,0,0,0,0,0,0,999.7,1013
2023-09-04T01:59:00+09:00,1.4,�k��,2.2,�k��,26.2,84.8,0,0,0,0,0,0,999.7,1013
2023-09-04T02:00:00+09:00,1.4,�k��,2.2,�k�k��,26.4,84.4,0,0,0,0,0,0,999.6,1012.9
2023-09-04T02:01:00+09:00,1.4,�k��,2.7,�k�k��,26.5,83.6,0,0,0,0,0,0,999.6,1012.9
2023-09-04T02:02:00+09:00,1.5,�k��,2.7,�k�k��,26.5,82.8,0,0,0,0,0,0,999.6,1012.9
2023-09-04T02:03:00+09:00,1.5,�k��,2.7,�k�k��,26.5,82.4,0,0,0,0,0,0,999.6,1012.9
2023-09-04T02:04:00+09:00,1.5,�k��,2.7,�k�k��,26.5,82.3,0,0,0,0,0,0,999.6,1012.9
2023-09-04T02:05:00+09:00,1.5,�k��,2.7,�k�k��,26.3,82,0,0,0,0,0,0,999.6,1012.9
2023-09-04T02:06:00+09:00,1.4,�k�k��,2.7,�k�k��,26.1,81.7,0,0,0,0,0,0,999.6,1012.9
2023-09-04T02:07:00+09:00,1.3,�k�k��,2.7,�k�k��,26.1,82.4,0,0,0,0,0,0,999.6,1012.9
2023-09-04T02:08:00+09:00,1.3,�k,2.7,�k�k��,26,82.8,0,0,0,0,0,0,999.5,1012.8
2023-09-04T02:09:00+09:00,1.2,�k,2.7,�k�k��,26,83.2,0,0,0,0,0,0,999.5,1012.8
2023-09-04T02:10:00+09:00,1.3,�k,2.7,�k�k��,25.9,83.4,0,0,0,0,0,0,999.5,1012.8
2023-09-04T02:11:00+09:00,1.1,�k,2.7,�k�k��,25.9,83.8,0,0,0,0,0,0,999.5,1012.8
2023-09-04T02:12:00+09:00,1.1,�k,2.4,�k,26,84.1,0,0,0,0,0,0,999.5,1012.8
2023-09-04T02:13:00+09:00,1.1,�k,2.4,�k,26.1,84.1,0,0,0,0,0,0,999.5,1012.8
2023-09-04T02:14:00+09:00,1.1,�k,2.4,�k,26.2,84.1,0,0,0,0,0,0,999.5,1012.8
2023-09-04T02:15:00+09:00,1.1,�k,2.1,�k��,26.2,83.8,0,0,0,0,0,0,999.5,1012.8
2023-09-04T02:16:00+09:00,1.3,�k�k��,2.1,�k��,26.2,83.7,0,0,0,0,0,0,999.5,1012.8
2023-09-04T02:17:00+09:00,1.3,�k�k��,2.2,�k��,26.3,83.8,0,0,0,0,0,0,999.5,1012.8
2023-09-04T02:18:00+09:00,1.4,�k�k��,2.2,�k��,26.5,83.6,0,0,0,0,0,0,999.5,1012.8
2023-09-04T02:19:00+09:00,1.4,�k�k��,2.2,�k��,26.4,82.7,0,0,0,0,0,0,999.5,1012.8
2023-09-04T02:20:00+09:00,1.3,�k�k��,2.2,�k��,26.4,82.7,0,0,0,0,0,0,999.5,1012.8
2023-09-04T02:21:00+09:00,1.3,�k�k��,2.2,�k��,26.2,82.3,0,0,0,0,0,0,999.4,1012.7
2023-09-04T02:22:00+09:00,1.3,�k�k��,2.2,�k��,26,82.3,0,0,0,0,0,0,999.4,1012.7
2023-09-04T02:23:00+09:00,1.2,�k�k��,2.2,�k��,25.9,82.9,0,0,0,0,0,0,999.4,1012.7
2023-09-04T02:24:00+09:00,1.2,�k,2.2,�k��,25.9,83.5,0,0,0,0,0,0,999.4,1012.7
2023-09-04T02:25:00+09:00,1.1,�k,2.2,�k��,25.8,83.6,0,0,0,0,0,0,999.4,1012.7
2023-09-04T02:26:00+09:00,1.1,�k,2.2,�k��,25.8,83.9,0,0,0,0,0,0,999.4,1012.7
2023-09-04T02:27:00+09:00,1,�k,1.8,�k�k��,25.9,84.3,0,0,0,0,0,0,999.4,1012.7
2023-09-04T02:28:00+09:00,1,�k,1.9,�k�k��,26,84.6,0,0,0,0,0,0,999.5,1012.8
2023-09-04T02:29:00+09:00,1,�k,1.9,�k�k��,26.1,84.7,0,0,0,0,0,0,999.5,1012.8
2023-09-04T02:30:00+09:00,1.1,�k,1.9,�k�k��,26.1,84.6,0,0,0,0,0,0,999.5,1012.8
2023-09-04T02:31:00+09:00,1.1,�k,1.9,�k�k��,26.2,84.2,0,0,0,0,0,0,999.5,1012.8
2023-09-04T02:32:00+09:00,1.2,�k�k��,2.7,�k��,26.2,84,0,0,0,0,0,0,999.5,1012.8
2023-09-04T02:33:00+09:00,1.3,�k�k��,2.7,�k��,26.3,84,0,0,0,0,0,0,999.6,1012.9
2023-09-04T02:34:00+09:00,1.4,�k�k��,2.7,�k��,26.3,83.7,0,0,0,0,0,0,999.5,1012.8
2023-09-04T02:35:00+09:00,1.5,�k��,2.9,�k��,26.1,83,0,0,0,0,0,0,999.5,1012.8
2023-09-04T02:36:00+09:00,1.6,�k��,2.9,�k��,26.1,83.3,0,0,0,0,0,0,999.5,1012.8
2023-09-04T02:37:00+09:00,1.7,�k��,2.9,�k��,26.1,83.4,0,0,0,0,0,0,999.5,1012.8
2023-09-04T02:38:00+09:00,1.8,�k��,3,�k��,26.1,83.6,0,0,0,0,0,0,999.4,1012.7
2023-09-04T02:39:00+09:00,1.9,�k��,3,�k��,26.1,83.7,0,0,0,0,0,0,999.4,1012.7
2023-09-04T02:40:00+09:00,2,�k��,3.3,�k�k��,26.2,84,0,0,0,0,0,0,999.4,1012.7
2023-09-04T02:41:00+09:00,2.1,�k��,3.3,�k�k��,26.2,83.9,0,0,0,0,0,0,999.4,1012.7
2023-09-04T02:42:00+09:00,2.1,�k��,3.3,�k�k��,26.2,83.6,0,0,0,0,0,0,999.4,1012.7
2023-09-04T02:43:00+09:00,2.2,�k��,3.3,�k�k��,26.3,83.6,0,0,0,0,0,0,999.4,1012.7
2023-09-04T02:44:00+09:00,2.1,�k��,3.3,�k�k��,26.2,83.3,0,0,0,0,0,0,999.3,1012.6
2023-09-04T02:45:00+09:00,2.1,�k��,3.3,�k�k��,26.1,83.2,0,0,0,0,0,0,999.3,1012.6
2023-09-04T02:46:00+09:00,2.1,�k��,3.3,�k�k��,25.9,83.1,0,0,0,0,0,0,999.3,1012.6
2023-09-04T02:47:00+09:00,2.1,�k��,3.7,�k��,25.8,83.6,0,0,0,0,0,0,999.3,1012.6
2023-09-04T02:48:00+09:00,2.1,�k��,3.7,�k��,26,84.4,0,0,0,0,0,0,999.2,1012.5
2023-09-04T02:49:00+09:00,2.1,�k��,3.7,�k��,26.1,84.5,0,0,0,0,0,0,999.2,1012.5
2023-09-04T02:50:00+09:00,2,�k��,3.7,�k��,26.3,84.4,0,0,0,0,0,0,999.2,1012.5
2023-09-04T02:51:00+09:00,2,�k��,3.7,�k��,26.2,83.9,0,0,0,0,0,0,999.2,1012.5
2023-09-04T02:52:00+09:00,2,�k��,3.7,�k��,26.2,83.6,0,0,0,0,0,0,999.2,1012.5
2023-09-04T02:53:00+09:00,2,�k��,3.7,�k��,25.9,83.2,0,0,0,0,0,0,999.1,1012.4
2023-09-04T02:54:00+09:00,2,�k��,3.7,�k��,25.7,83.2,0,0,0,0,0,0,999.1,1012.4
2023-09-04T02:55:00+09:00,2.1,�k��,3.7,�k��,25.4,84,0,0,0,0,0,0,999.1,1012.4
2023-09-04T02:56:00+09:00,2.1,�k��,3.7,�k��,25.6,85,0,0,0,0,0,0,999.1,1012.4
2023-09-04T02:57:00+09:00,2,�k��,3.1,�k��,25.7,85.9,0,0,0,0,0,0,999,1012.3
2023-09-04T02:58:00+09:00,2,�k��,3.1,�k��,25.8,86,0,0,0,0,0,0,999,1012.3
2023-09-04T02:59:00+09:00,2,�k��,3.1,�k��,25.8,86,0,0,0,0,0,0,999,1012.3
2023-09-04T03:00:00+09:00,2,�k��,3.1,�k��,25.8,85.7,0,0,0,0,0,0,999,1012.3
2023-09-04T03:01:00+09:00,2,�k��,3.1,�k��,25.9,85.8,0,0,0,0,0,0,999,1012.3
2023-09-04T03:02:00+09:00,2,�k��,3.1,�k��,26,85.7,0,0,0,0,0,0,999,1012.3
2023-09-04T03:03:00+09:00,1.9,�k��,2.8,�k��,25.9,85.4,0,0,0,0,0,0,999,1012.3
2023-09-04T03:04:00+09:00,1.9,�k��,3,�k�k��,25.8,85,0,0,0,0,0,0,998.9,1012.2
2023-09-04T03:05:00+09:00,1.9,�k��,3,�k�k��,25.6,85.2,0,0,0,0,0,0,998.9,1012.2
2023-09-04T03:06:00+09:00,1.8,�k��,3.1,�k�k��,25.8,85.6,0,0,0,0,0,0,998.9,1012.2
2023-09-04T03:07:00+09:00,1.9,�k��,3.1,�k�k��,25.8,85.6,0,0,0,0,0,0,998.9,1012.2
2023-09-04T03:08:00+09:00,1.9,�k��,3.1,�k�k��,25.9,85.9,0,0,0,0,0,0,998.9,1012.2
2023-09-04T03:09:00+09:00,1.9,�k�k��,3.1,�k�k��,26.1,85.9,0,0,0,0,0,0,998.9,1012.2
2023-09-04T03:10:00+09:00,1.8,�k�k��,3.1,�k�k��,26,85.4,0,0,0,0,0,0,998.9,1012.2
2023-09-04T03:11:00+09:00,1.7,�k�k��,3.1,�k�k��,25.7,84.8,0,0,0,0,0,0,998.9,1012.2
2023-09-04T03:12:00+09:00,1.6,�k�k��,3.1,�k�k��,25.7,85.1,0,0,0,0,0,0,998.9,1012.2
2023-09-04T03:13:00+09:00,1.6,�k�k��,3.1,�k�k��,25.7,85.7,0,0,0,0,0,0,998.9,1012.2
2023-09-04T03:14:00+09:00,1.7,�k�k��,4.1,�k�k��,25.8,86.1,0,0,0,0,0,0,998.9,1012.2
2023-09-04T03:15:00+09:00,1.8,�k�k��,4.1,�k�k��,25.9,86.2,0,0,0,0,0,0,998.9,1012.2
2023-09-04T03:16:00+09:00,1.9,�k�k��,4.1,�k�k��,26,86,0,0,0,0,0,0,998.9,1012.2
2023-09-04T03:17:00+09:00,1.9,�k�k��,4.1,�k�k��,25.9,85.4,0,0,0,0,0,0,998.9,1012.2
2023-09-04T03:18:00+09:00,1.9,�k�k��,4.1,�k�k��,25.8,85.2,0,0,0,0,0,0,998.9,1012.2
2023-09-04T03:19:00+09:00,1.9,�k�k��,4.1,�k�k��,25.9,85.4,0,0,0,0,0,0,998.9,1012.2
2023-09-04T03:20:00+09:00,2,�k�k��,4.1,�k�k��,25.7,85.1,0,0,0,0,0,0,998.9,1012.2
2023-09-04T03:21:00+09:00,2.2,�k�k��,4.1,�k�k��,25.6,85.3,0,0,0,0,0,0,998.9,1012.2
2023-09-04T03:22:00+09:00,2.4,�k�k��,4.1,�k�k��,25.7,85.9,0,0,0,0,0,0,998.9,1012.2
2023-09-04T03:23:00+09:00,2.4,�k�k��,4.1,�k�k��,26,86.2,0,0,0,0,0,0,998.9,1012.2
2023-09-04T03:24:00+09:00,2.4,�k�k��,4.3,�k�k��,25.9,85.8,0,0,0,0,0,0,998.9,1012.2
2023-09-04T03:25:00+09:00,2.4,�k�k��,4.3,�k�k��,26,85.8,0,0,0,0,0,0,998.8,1012.1
2023-09-04T03:26:00+09:00,2.5,�k�k��,4.3,�k�k��,25.9,85.2,0,0,0,0,0,0,998.8,1012.1
2023-09-04T03:27:00+09:00,2.6,�k�k��,4.3,�k�k��,25.7,84.9,0,0,0,0,0,0,998.8,1012.1
2023-09-04T03:28:00+09:00,2.6,�k�k��,4.3,�k�k��,25.7,85.2,0,0,0,0,0,0,998.8,1012.1
2023-09-04T03:29:00+09:00,2.6,�k�k��,4.3,�k�k��,25.6,85.4,0,0,0,0,0,0,998.8,1012.1
2023-09-04T03:30:00+09:00,2.7,�k�k��,4.3,�k�k��,25.6,85.8,0,0,0,0,0,0,998.8,1012.1
2023-09-04T03:31:00+09:00,2.7,�k�k��,4.3,�k�k��,25.6,86.1,0,0,0,0,0,0,998.8,1012.1
2023-09-04T03:32:00+09:00,2.7,�k�k��,4.3,�k�k��,25.6,86.3,0,0,0,0,0,0,998.8,1012.1
2023-09-04T03:33:00+09:00,2.7,�k�k��,4.3,�k�k��,25.7,86.7,0,0,0,0,0,0,998.8,1012.1
2023-09-04T03:34:00+09:00,2.7,�k�k��,4.1,�k,25.6,86.6,0,0,0,0,0,0,998.8,1012.1
2023-09-04T03:35:00+09:00,2.7,�k�k��,4.1,�k,25.8,86.9,0,0,0,0,0,0,998.8,1012.1
2023-09-04T03:36:00+09:00,2.7,�k�k��,4.1,�k,26,86.9,0,0,0,0,0,0,998.8,1012.1
2023-09-04T03:37:00+09:00,2.7,�k�k��,4.3,�k��,25.8,86.3,0,0,0,0,0,0,998.8,1012.1
2023-09-04T03:38:00+09:00,2.8,�k�k��,4.3,�k��,25.8,85.8,0,0,0,0,0,0,998.7,1012
2023-09-04T03:39:00+09:00,2.9,�k��,4.3,�k��,25.8,85.9,0,0,0,0,0,0,998.7,1012
2023-09-04T03:40:00+09:00,3,�k��,4.6,�k��,25.8,86.1,0,0,0,0,0,0,998.8,1012.1
2023-09-04T03:41:00+09:00,3,�k��,4.6,�k��,25.8,86.2,0,0,0,0,0,0,998.7,1012
2023-09-04T03:42:00+09:00,3.1,�k��,4.9,�k��,25.7,86.1,0,0,0,0,0,0,998.7,1012
2023-09-04T03:43:00+09:00,3.2,�k��,4.9,�k��,25.7,86.3,0,0,0,0,0,0,998.7,1012
2023-09-04T03:44:00+09:00,3.2,�k��,4.9,�k��,25.8,86.5,0,0,0,0,0,0,998.7,1012
2023-09-04T03:45:00+09:00,3.2,�k��,4.9,�k��,25.8,86.7,0,0,0,0,0,0,998.7,1012
2023-09-04T03:46:00+09:00,3.2,�k��,4.9,�k��,25.8,86.4,0,0,0,0,0,0,998.7,1012
2023-09-04T03:47:00+09:00,3.1,�k��,4.9,�k��,25.8,86.1,0,0,0,0,0,0,998.7,1012
2023-09-04T03:48:00+09:00,3,�k��,4.9,�k��,25.9,86.2,0,0,0,0,0,0,998.7,1012
2023-09-04T03:49:00+09:00,3,�k��,4.9,�k��,25.9,86.1,0,0,0,0,0,0,998.7,1012
2023-09-04T03:50:00+09:00,2.9,�k�k��,4.9,�k��,25.8,85.8,0,0,0,0,0,0,998.7,1012
2023-09-04T03:51:00+09:00,2.8,�k�k��,4.9,�k��,25.8,85.8,0,0,0,0,0,0,998.7,1012
2023-09-04T03:52:00+09:00,2.8,�k�k��,4.5,�k��,25.8,85.9,0,0,0,0,0,0,998.6,1011.9
2023-09-04T03:53:00+09:00,2.6,�k�k��,4.1,�k�k��,25.7,85.9,0,0,0,0,0,0,998.6,1011.9
2023-09-04T03:54:00+09:00,2.6,�k�k��,4.1,�k�k��,25.7,86,0,0,0,0,0,0,998.6,1011.9
2023-09-04T03:55:00+09:00,2.6,�k�k��,4.1,�k�k��,25.7,86.1,0,0,0,0,0,0,998.6,1011.9
2023-09-04T03:56:00+09:00,2.6,�k�k��,3.7,�k��,25.7,86.2,0,0,0,0,0,0,998.6,1011.9
2023-09-04T03:57:00+09:00,2.6,�k�k��,3.6,�k�k��,25.8,86.5,0,0,0,0,0,0,998.6,1011.9
2023-09-04T03:58:00+09:00,2.6,�k�k��,3.6,�k�k��,25.8,86.4,0,0,0,0,0,0,998.6,1011.9
2023-09-04T03:59:00+09:00,2.5,�k�k��,3.6,�k�k��,25.9,86.4,0,0,0,0,0,0,998.6,1011.9
2023-09-04T04:00:00+09:00,2.4,�k�k��,3.5,�k�k��,25.8,86.1,0,0,0,0,0,0,998.7,1012
2023-09-04T04:01:00+09:00,2.4,�k�k��,3.5,�k�k��,26,86.2,0,0,0,0,0,0,998.7,1012
2023-09-04T04:02:00+09:00,2.3,�k�k��,3.4,�k��,25.8,85.9,0,0,0,0,0,0,998.7,1012
2023-09-04T04:03:00+09:00,2.2,�k�k��,3.4,�k��,25.8,85.8,0,0,0,0,0,0,998.6,1011.9
2023-09-04T04:04:00+09:00,2.2,�k�k��,3.7,�k�k��,25.8,86,0,0,0,0,0,0,998.6,1011.9
2023-09-04T04:05:00+09:00,2.1,�k�k��,3.7,�k�k��,25.5,85.7,0,0,0,0,0,0,998.6,1011.9
2023-09-04T04:06:00+09:00,1.9,�k�k��,3.7,�k�k��,25.5,85.9,0,0,0,0,0,0,998.5,1011.8
2023-09-04T04:07:00+09:00,1.9,�k,3.7,�k�k��,25.5,86.6,0,0,0,0,0,0,998.5,1011.8
2023-09-04T04:08:00+09:00,1.9,�k,3.8,�k��,25.6,87.3,0,0,0,0,0,0,998.5,1011.8
2023-09-04T04:09:00+09:00,1.9,�k,4.2,�k��,25.7,87.6,0,0,0,0,0,0,998.5,1011.8
2023-09-04T04:10:00+09:00,2,�k,4.3,�k��,25.8,87.7,0,0,0,0,0,0,998.5,1011.8
2023-09-04T04:11:00+09:00,2,�k,4.3,�k��,25.8,87.4,0,0,0,0,0,0,998.5,1011.8
2023-09-04T04:12:00+09:00,2,�k�k��,4.3,�k��,26,87.3,0,0,0,0,0,0,998.5,1011.8
2023-09-04T04:13:00+09:00,2.1,�k�k��,4.3,�k��,26,86.6,0,0,0,0,0,0,998.5,1011.8
2023-09-04T04:14:00+09:00,2,�k�k��,4.3,�k��,26,86.1,0,0,0,0,0,0,998.5,1011.8
2023-09-04T04:15:00+09:00,1.9,�k�k��,4.3,�k��,26.1,86,0,0,0,0,0,0,998.5,1011.8
2023-09-04T04:16:00+09:00,1.9,�k�k��,4.3,�k��,26.1,85.8,0,0,0,0,0,0,998.5,1011.8
2023-09-04T04:17:00+09:00,1.9,�k�k��,4.3,�k��,26.1,85.6,0,0,0,0,0,0,998.5,1011.8
2023-09-04T04:18:00+09:00,1.9,�k�k��,4.3,�k��,26.1,85.4,0,0,0,0,0,0,998.5,1011.8
2023-09-04T04:19:00+09:00,2.1,�k,4.8,�k,26.1,85.4,0,0,0,0,0,0,998.5,1011.8
2023-09-04T04:20:00+09:00,2.1,�k,4.8,�k,26.1,85.4,0,0,0,0,0,0,998.4,1011.7
2023-09-04T04:21:00+09:00,2.1,�k,4.8,�k,25.9,85,0,0,0,0,0,0,998.4,1011.7
2023-09-04T04:22:00+09:00,2,�k,4.8,�k,25.8,84.9,0,0,0,0,0,0,998.4,1011.7
2023-09-04T04:23:00+09:00,2,�k,4.8,�k,25.9,85.6,0,0,0,0,0,0,998.4,1011.7
2023-09-04T04:24:00+09:00,2.2,�k,4.8,�k,25.9,85.8,0,0,0,0,0,0,998.4,1011.7
2023-09-04T04:25:00+09:00,2.4,�k,4.8,�k,26.1,86.2,0,0,0,0,0,0,998.4,1011.7
2023-09-04T04:26:00+09:00,2.5,�k,4.8,�k,26.3,86,0,0,0,0,0,0,998.4,1011.7
2023-09-04T04:27:00+09:00,2.6,�k�k��,4.8,�k,26.1,85.4,0,0,0,0,0,0,998.4,1011.7
2023-09-04T04:28:00+09:00,2.6,�k�k��,4.8,�k,26.1,85.1,0,0,0,0,0,0,998.4,1011.7
2023-09-04T04:29:00+09:00,2.4,�k�k��,4.7,�k�k��,26.2,85.2,0,0,0,0,0,0,998.4,1011.7
2023-09-04T04:30:00+09:00,2.3,�k�k��,4.7,�k�k��,26.2,84.9,0,0,0,0,0,0,998.4,1011.7
2023-09-04T04:31:00+09:00,2.2,�k�k��,4.7,�k�k��,26,84.6,0,0,0,0,0,0,998.4,1011.7
2023-09-04T04:32:00+09:00,2.4,�k�k��,4.7,�k�k��,26.1,84.8,0,0,0,0,0,0,998.4,1011.7
2023-09-04T04:33:00+09:00,2.4,�k�k��,4.7,�k�k��,26.1,85,0,0,0,0,0,0,998.4,1011.7
2023-09-04T04:34:00+09:00,2.3,�k�k��,4.4,�k�k��,26.1,85,0,0,0,0,0,0,998.4,1011.7
2023-09-04T04:35:00+09:00,2.3,�k�k��,4.4,�k�k��,26.1,84.9,0,0,0,0,0,0,998.4,1011.7
2023-09-04T04:36:00+09:00,2.3,�k�k��,5.2,�k�k��,26.1,84.8,0,0,0,0,0,0,998.4,1011.7
2023-09-04T04:37:00+09:00,2.2,�k�k��,5.2,�k�k��,25.9,85,0,0,0,0,0,0,998.5,1011.8
2023-09-04T04:38:00+09:00,2.2,�k�k��,5.2,�k�k��,26,85.2,0,0,0,0,0,0,998.5,1011.8
2023-09-04T04:39:00+09:00,2.3,�k�k��,5.2,�k�k��,26,85.4,0,0,0,0,0,0,998.4,1011.7
2023-09-04T04:40:00+09:00,2.4,�k�k��,5.2,�k�k��,26,85.6,0,0,0,0,0,0,998.4,1011.7
2023-09-04T04:41:00+09:00,2.5,�k�k��,5.2,�k�k��,26.1,85.6,0,0,0,0,0,0,998.4,1011.7
2023-09-04T04:42:00+09:00,2.5,�k�k��,5.2,�k�k��,26,85.6,0,0,0,0,0,0,998.4,1011.7
2023-09-04T04:43:00+09:00,2.6,�k�k��,5.2,�k�k��,26,85.5,0,0,0,0,0,0,998.4,1011.7
2023-09-04T04:44:00+09:00,2.6,�k�k��,5.2,�k�k��,26.1,85.8,0,0,0,0,0,0,998.4,1011.7
2023-09-04T04:45:00+09:00,2.6,�k�k��,5.2,�k�k��,26.1,85.7,0,0,0,0,0,0,998.4,1011.7
2023-09-04T04:46:00+09:00,2.5,�k�k��,3.8,�k,26,85.6,0,0,0,0,0,0,998.3,1011.6
2023-09-04T04:47:00+09:00,2.4,�k,3.8,�k,26,85.7,0,0,0,0,0,0,998.3,1011.6
2023-09-04T04:48:00+09:00,2.3,�k,3.8,�k,25.9,85.7,0,0,0,0,0,0,998.3,1011.6
2023-09-04T04:49:00+09:00,2.2,�k,3.8,�k,25.9,85.8,0,0,0,0,0,0,998.3,1011.6
2023-09-04T04:50:00+09:00,2,�k,3.8,�k,25.8,85.9,0,0,0,0,0,0,998.3,1011.6
2023-09-04T04:51:00+09:00,2,�k,3.8,�k,25.8,86.1,0,0,0,0,0,0,998.3,1011.6
2023-09-04T04:52:00+09:00,1.9,�k,3.8,�k,25.8,86.2,0,0,0,0,0,0,998.2,1011.5
2023-09-04T04:53:00+09:00,1.7,�k,3.8,�k,25.8,86.5,0,0,0,0,0,0,998.2,1011.5
2023-09-04T04:54:00+09:00,1.6,�k,3.6,�k,25.8,86.6,0,0,0,0,0,0,998.2,1011.5
2023-09-04T04:55:00+09:00,1.5,�k�k��,3.7,�k��,25.8,86.5,0,0,0,0,0,0,998.2,1011.5
2023-09-04T04:56:00+09:00,1.5,�k�k��,3.7,�k��,25.8,86.5,0,0,0,0,0,0,998.2,1011.5
2023-09-04T04:57:00+09:00,1.5,�k�k��,3.7,�k��,25.9,86.6,0,0,0,0,0,0,998.2,1011.5
2023-09-04T04:58:00+09:00,1.5,�k�k��,3.7,�k��,25.9,86.4,0,0,0,0,0,0,998.2,1011.5
2023-09-04T04:59:00+09:00,1.6,�k�k��,3.8,�k,26,86.3,0,0,0,0,0,0,998.2,1011.5